2023 KV1
ephemeris date magn radius delta ra dec elong phase
Today20 Oct 202530.01.815 AU2.465 AU11h05m+01°11'39.8°20.6°
2023 KV1 - 2025-10-20
astro.vanbuitenen.nl


 
-1 year
-1 month
-1 day
Now
+1 day
+1 month
+1 year

The interactive orbit chart above shows the body's path through the solar system and its position at the given date. Green and blue lines are shown perpendicular to the ecliptic plane: Green if the path is above the ecliptic plane, blue if it is below. (Left-click and drag to rotate the view; Right-click and drag to move the view; Use scroll wheel to zoom in our out.)

The orbital elements of 2023 KV1 are:

            e (Eccentricity)                : 0.4831313
            a (Semimajor axis)              : 1.9780688
            i (Inclination)                 : 5.94861
            Ω (Longitude of ascending node) : 226.72510
            ω (Argument of perihelion)      : 29.45837
            M (Mean anomaly)                : 247.57122
            Epoch                           : 2025 May 05

            L (Longitude of perihelion)     : 256.05119
            B (Latitude of perihelion)      : 2.92149
            P (Orbital period in years)     : 2.78            
        

The light curve chart below shows the estimated development of the minor planet's magnitude.


The all-sky chart below shows the path of the minor planet over the same period as the light curve. The current position is marked yellow.





The following chart shows the path of the minor planet in the next few days. The field of view is optimized for (~10x50) binoculars and finderscopes.




Ephemerides:
Date       Time       RA (2000)    DEC (2000)    delta   radius  elong  phase   PA    magn
2025-10-20 00:00 UT   11 05 02.9   +01 11 53     2.465    1.815   39.8   20.6   288   30.0 
2025-10-20 18:06 UT   11 06 44.8   +01 01 01     2.455    1.810   40.1   20.7   288   30.0 
2025-10-21 00:00 UT   11 07 18.0   +00 57 28     2.452    1.809   40.2   20.8   288   29.9 
2025-10-22 00:00 UT   11 09 33.7   +00 42 57     2.439    1.802   40.6   21.0   288   29.9 
2025-10-23 00:00 UT   11 11 50.0   +00 28 22     2.425    1.796   40.9   21.3   288   29.9 
2025-10-24 00:00 UT   11 14 06.9   +00 13 40     2.412    1.790   41.3   21.5   288   29.9 
2025-10-25 00:00 UT   11 16 24.3   +00 01 06     2.399    1.783   41.7   21.8   288   29.9 
2025-10-26 00:00 UT   11 18 42.4   +00 15 58     2.386    1.777   42.0   22.0   288   29.9 
2025-10-27 00:00 UT   11 21 01.1   +00 30 55     2.373    1.770   42.4   22.2   288   29.9 
2025-10-28 00:00 UT   11 23 20.4   +00 45 57     2.359    1.764   42.8   22.5   288   29.9 
2025-10-29 00:00 UT   11 25 40.4   -01 01 05     2.346    1.758   43.1   22.7   289   29.9 
2025-10-30 00:00 UT   11 28 01.1   -01 16 17     2.333    1.751   43.5   23.0   289   29.8 
2025-10-31 00:00 UT   11 30 22.4   -01 31 35     2.320    1.745   43.8   23.2   289   29.8 
2025-11-01 00:00 UT   11 32 44.5   -01 46 58     2.306    1.738   44.2   23.5   289   29.8 
2025-11-02 00:00 UT   11 35 07.2   -02 02 26     2.293    1.732   44.5   23.7   289   29.8 


    Terminology:
            
    delta:  distance between minor planet and earth in AU
    radius: distance between minor planet and sun in AU
    magn:   magnitude (brightness) estimate    
    ra:     right ascension in hours (24h = 360deg)
    dec:    declination in degrees
    elong:  elongation in degrees (angle sun-earth-minor planet)    
    phase:  phase angle in degrees (angle sun-minor planet-earth)        
    AU:     Astronomical Unit (mean distance between earth and sun: 149597870.7 km
    

Orbital elements provided by the MPC (Minor Planet Center).
Calculations by a modified version of AAPlus, a C# implementation of the AA+ project by PJ Naughter from the algorithms presented in the book "Astronomical Algorithms" by Jean Meeus.
NGC2000 dso catalog and star labels from VizieR as provided by the Strasbourg astronomical Data Center.
Tycho2 catalog from the ESO archive.